Torna al catalogo

COSMOS 1579 COOLANT

AttivoLEO
NORAD 26517·DEBRIS·🇷🇺 Russia

Lanciato Jun 29, 1984 da Baikonur Cosmodrome

Loading…

Prossimi Passaggi (prossime 24 ore)

TLE

ObsoletoSource: Space-Track

Epoca: Sep 4, 2026, 05:39 UTC

1 26517U 84069J   26247.23606411  .00000005  00000-0  74294-4 0  9997
2 26517  65.0498  56.1010 0052041 323.4298 212.1018 13.91246586666346

Traccia COSMOS 1579 COOLANT in tempo reale con AllMySat

Download on the App Store